{"data":{"norad_id":58654,"intl_designator":"2023-207A","name":"BEIDOU-3 M28 (C50)","alt_names":[],"object_type":"PAYLOAD","status":"ACTIVE","operator":null,"country":"PRC","launch_date":"2023-12-26","launch_site_code":"XICLF","launch_vehicle":null,"mission":null,"orbit_class":"UNKNOWN","rcs_meters":null,"size_class":null,"mass_kg":null,"dimensions":null,"purposes":["nav"],"wikipedia_slug":null,"has_3d_model":false,"image_url":null,"decayed_at":null,"tle_current":{"epoch":"2026-05-24T16:09:13.192704Z","epoch_age_seconds":110254,"freshness":"FRESH","line1":"1 58654U 23207A   26144.67306936 -.00000074  00000+0  00000+0 0  9999","line2":"2 58654  55.7330  63.0961 0003901 336.6744  23.3018  1.86229732 16402","mean_motion":1.86229732,"eccentricity":0.0003901,"inclination_deg":55.733,"raan_deg":63.0961,"arg_perigee_deg":336.6744,"mean_anomaly_deg":23.3018,"bstar":0,"rev_number":1640,"period_min":773.23850737217,"perigee_km":21517.291981839,"apogee_km":21539.064488986,"semimajor_km":27906.315235412,"source":"CELESTRAK","updated_at":"2026-05-25T13:38:24.224487Z"}}}